VTK601 UHMM-UEEE

Flight info

Callsign VTK601
Flight time 1h 47m
Altitude 40000
Route KUKIR5D KUKIR A949 INLIR G370 KUTEG KUTEG6D
Aircraft A35K/H-SDE2E3GHIJ3J4J5LM1ORWXY/LB1D1

Departure

Time 2026-05-07 09:40
Airport Sokol Airport (UHMM)

Arrival

Time 2026-05-07 11:28
Airport Platon Oyunsky Yakutsk International Airport (UEEE)
Time Latitude Longitude Altitude Speed Heading
2026-05-07 09:40 59.90490 150.94344 6278 ft 244 kts 94°
2026-05-07 09:40 59.90383 150.97729 7269 ft 247 kts 93°
2026-05-07 09:41 59.90278 151.01148 8054 ft 252 kts 93°
2026-05-07 09:41 59.89973 151.04666 8859 ft 262 kts 107°
2026-05-07 09:41 59.89042 151.07833 9642 ft 273 kts 130°
2026-05-07 09:41 59.87415 151.09957 10308 ft 289 kts 159°
2026-05-07 09:42 59.85374 151.10323 11115 ft 303 kts 187°
2026-05-07 09:42 59.83424 151.08751 12079 ft 309 kts 215°
2026-05-07 09:42 59.82063 151.05451 13077 ft 313 kts 245°
2026-05-07 09:42 59.81654 151.01192 13936 ft 320 kts 274°
2026-05-07 09:43 59.82117 150.96846 14733 ft 324 kts 287°
2026-05-07 09:43 59.82800 150.92504 15551 ft 331 kts 288°
2026-05-07 09:43 59.83487 150.88134 16385 ft 333 kts 287°
2026-05-07 09:43 59.84166 150.83697 17159 ft 336 kts 288°
2026-05-07 09:44 59.84615 150.80723 17616 ft 341 kts 287°
2026-05-07 09:44 59.85514 150.74620 18501 ft 347 kts 286°
2026-05-07 09:44 59.85960 150.71549 18954 ft 349 kts 287°
2026-05-07 09:44 59.86635 150.66883 19658 ft 353 kts 287°
2026-05-07 09:45 59.87316 150.62166 20383 ft 356 kts 287°
2026-05-07 09:45 59.88001 150.57393 21089 ft 362 kts 286°
2026-05-07 09:45 59.88697 150.52560 21858 ft 365 kts 287°
2026-05-07 09:45 59.89399 150.47674 22672 ft 369 kts 287°
2026-05-07 09:46 59.90089 150.42740 23404 ft 369 kts 287°
2026-05-07 09:46 59.90791 150.37787 23821 ft 375 kts 287°
2026-05-07 09:46 59.91506 150.32727 24323 ft 382 kts 287°
2026-05-07 09:46 59.92222 150.27633 25023 ft 382 kts 287°
2026-05-07 09:47 59.92951 150.22517 25716 ft 382 kts 286°
2026-05-07 09:47 59.93671 150.17386 26232 ft 387 kts 287°
2026-05-07 09:47 59.94390 150.12253 26744 ft 391 kts 287°
2026-05-07 09:47 59.95134 150.06933 27307 ft 394 kts 286°
2026-05-07 09:48 59.95869 150.01645 27888 ft 397 kts 286°
2026-05-07 09:48 59.96606 149.96315 28446 ft 400 kts 286°
2026-05-07 09:48 59.97348 149.90946 28994 ft 403 kts 286°
2026-05-07 09:48 59.98094 149.85518 29514 ft 407 kts 286°
2026-05-07 09:49 59.98844 149.80041 29969 ft 411 kts 286°
2026-05-07 09:49 59.99599 149.74519 30345 ft 414 kts 286°
2026-05-07 09:49 60.00359 149.68942 30720 ft 418 kts 286°
2026-05-07 09:49 60.01122 149.63308 31104 ft 422 kts 285°
2026-05-07 09:50 60.01890 149.57623 31465 ft 426 kts 285°
2026-05-07 09:50 60.02663 149.51880 31831 ft 429 kts 285°
2026-05-07 09:50 60.03344 149.46123 32189 ft 433 kts 282°
2026-05-07 09:50 60.03903 149.40096 32545 ft 437 kts 280°
2026-05-07 09:51 60.04396 149.34102 32962 ft 438 kts 279°
2026-05-07 09:51 60.04874 149.28137 33339 ft 441 kts 279°
2026-05-07 09:51 60.05371 149.22065 33681 ft 444 kts 279°
2026-05-07 09:51 60.05894 149.15872 33947 ft 448 kts 279°
2026-05-07 09:52 60.06428 149.09705 34219 ft 450 kts 280°
2026-05-07 09:52 60.06972 149.03598 34509 ft 453 kts 280°
2026-05-07 09:52 60.07533 148.97297 34778 ft 455 kts 280°
2026-05-07 09:52 60.08088 148.91028 35023 ft 459 kts 280°
2026-05-07 09:53 60.08643 148.84709 35287 ft 461 kts 280°
2026-05-07 09:53 60.09196 148.78363 35556 ft 464 kts 279°
2026-05-07 09:53 60.09748 148.71981 35822 ft 466 kts 279°
2026-05-07 09:53 60.10301 148.65559 36074 ft 469 kts 279°
2026-05-07 09:54 60.10854 148.59098 36304 ft 471 kts 279°
2026-05-07 09:54 60.11408 148.52605 36562 ft 474 kts 279°
2026-05-07 09:54 60.11960 148.46085 36857 ft 475 kts 279°
2026-05-07 09:54 60.12509 148.39548 37115 ft 477 kts 279°
2026-05-07 09:55 60.13060 148.32968 37316 ft 480 kts 279°
2026-05-07 09:55 60.13610 148.26347 37530 ft 482 kts 279°
2026-05-07 09:55 60.14159 148.19689 37754 ft 484 kts 279°
2026-05-07 09:55 60.14709 148.13003 37975 ft 487 kts 279°
2026-05-07 09:56 60.15257 148.06286 38176 ft 489 kts 279°
2026-05-07 09:56 60.15803 147.99530 38369 ft 491 kts 279°
2026-05-07 09:56 60.16346 147.92753 38522 ft 493 kts 279°
2026-05-07 09:56 60.16891 147.85942 38672 ft 495 kts 279°
2026-05-07 09:57 60.17434 147.79096 38843 ft 496 kts 278°
2026-05-07 09:57 60.17974 147.72241 39023 ft 497 kts 278°
2026-05-07 09:57 60.18510 147.65371 39183 ft 499 kts 278°
2026-05-07 09:57 60.19045 147.58476 39354 ft 500 kts 278°
2026-05-07 09:58 60.19576 147.51573 39510 ft 501 kts 278°
2026-05-07 09:58 60.20107 147.44643 39645 ft 502 kts 278°
2026-05-07 09:58 60.20634 147.37704 39749 ft 504 kts 278°
2026-05-07 09:59 60.21683 147.23747 39769 ft 505 kts 278°
2026-05-07 09:59 60.22718 147.09781 39769 ft 505 kts 278°
2026-05-07 10:00 60.23738 146.95811 39769 ft 505 kts 278°
2026-05-07 10:00 60.24744 146.81817 39771 ft 505 kts 278°
2026-05-07 10:01 60.25735 146.67812 39771 ft 505 kts 278°
2026-05-07 10:01 60.26710 146.53837 39769 ft 503 kts 277°
2026-05-07 10:02 60.27668 146.39871 39771 ft 503 kts 277°
2026-05-07 10:02 60.28611 146.25890 39771 ft 503 kts 277°
2026-05-07 10:03 60.29534 146.11998 39769 ft 503 kts 277°
2026-05-07 10:03 60.30490 145.97931 39765 ft 503 kts 280°
2026-05-07 10:04 60.32416 145.84374 39771 ft 503 kts 288°
2026-05-07 10:04 60.34729 145.71066 39768 ft 503 kts 289°
2026-05-07 10:05 60.37092 145.57781 39764 ft 502 kts 289°
2026-05-07 10:05 60.39433 145.44477 39766 ft 502 kts 289°
2026-05-07 10:06 60.41746 145.31146 39769 ft 502 kts 289°
2026-05-07 10:06 60.44042 145.17799 39769 ft 502 kts 289°
2026-05-07 10:07 60.46324 145.04421 39766 ft 502 kts 289°
2026-05-07 10:07 60.48590 144.91028 39766 ft 502 kts 289°
2026-05-07 10:08 60.50833 144.77694 39768 ft 502 kts 289°
2026-05-07 10:08 60.53076 144.64262 39766 ft 502 kts 288°
2026-05-07 10:09 60.55307 144.50803 39763 ft 502 kts 288°
2026-05-07 10:09 60.57523 144.37334 39758 ft 502 kts 288°
2026-05-07 10:10 60.59721 144.23853 39760 ft 502 kts 288°
2026-05-07 10:10 60.61921 144.10352 39761 ft 502 kts 288°
2026-05-07 10:11 60.64107 143.96839 39755 ft 502 kts 288°
2026-05-07 10:11 60.66281 143.83305 39754 ft 502 kts 288°
2026-05-07 10:12 60.68441 143.69753 39749 ft 503 kts 288°
2026-05-07 10:12 60.70589 143.56164 39755 ft 503 kts 288°
2026-05-07 10:13 60.72722 143.42565 39745 ft 502 kts 287°
2026-05-07 10:13 60.74840 143.28957 39743 ft 502 kts 287°
2026-05-07 10:14 60.76944 143.15330 39744 ft 502 kts 287°
2026-05-07 10:14 60.79037 143.01686 39740 ft 502 kts 287°
2026-05-07 10:15 60.81108 142.88023 39744 ft 502 kts 287°
2026-05-07 10:15 60.83164 142.74355 39739 ft 501 kts 287°
2026-05-07 10:16 60.85205 142.60690 39729 ft 501 kts 287°
2026-05-07 10:16 60.87233 142.47000 39723 ft 501 kts 286°
2026-05-07 10:17 60.89247 142.33309 39727 ft 501 kts 286°
2026-05-07 10:17 60.91243 142.19604 39718 ft 500 kts 286°
2026-05-07 10:18 60.93220 142.05914 39716 ft 499 kts 286°
2026-05-07 10:18 60.95183 141.92220 39711 ft 499 kts 286°
2026-05-07 10:19 60.97131 141.78515 39715 ft 499 kts 285°
2026-05-07 10:19 60.99063 141.64792 39723 ft 499 kts 285°
2026-05-07 10:20 61.00984 141.51052 39722 ft 499 kts 285°
2026-05-07 10:20 61.02895 141.37302 39727 ft 499 kts 285°
2026-05-07 10:21 61.04784 141.23542 39728 ft 498 kts 285°
2026-05-07 10:21 61.06657 141.09779 39726 ft 498 kts 285°
2026-05-07 10:22 61.08515 140.96016 39720 ft 497 kts 285°
2026-05-07 10:22 61.10358 140.82254 39719 ft 497 kts 285°
2026-05-07 10:23 61.12185 140.68486 39714 ft 497 kts 285°
2026-05-07 10:23 61.14000 140.54693 39708 ft 496 kts 284°
2026-05-07 10:24 61.15497 140.43237 39708 ft 496 kts 284°
2026-05-07 10:24 61.17287 140.29437 39705 ft 496 kts 284°
2026-05-07 10:25 61.19057 140.15617 39705 ft 496 kts 284°
2026-05-07 10:25 61.20818 140.01781 39705 ft 496 kts 284°
2026-05-07 10:26 61.22565 139.87932 39707 ft 495 kts 284°
2026-05-07 10:26 61.24294 139.74110 39705 ft 494 kts 284°
2026-05-07 10:27 61.26004 139.60290 39708 ft 494 kts 284°
2026-05-07 10:27 61.27702 139.46445 39707 ft 494 kts 284°
2026-05-07 10:28 61.29385 139.32599 39716 ft 494 kts 283°
2026-05-07 10:28 61.31056 139.18718 39722 ft 494 kts 283°
2026-05-07 10:29 61.32709 139.04844 39732 ft 494 kts 283°
2026-05-07 10:29 61.34348 138.90949 39731 ft 493 kts 283°
2026-05-07 10:30 61.36771 138.70148 39739 ft 492 kts 283°
2026-05-07 10:30 61.38368 138.56297 39742 ft 491 kts 283°
2026-05-07 10:31 61.39948 138.42456 39745 ft 490 kts 283°
2026-05-07 10:31 61.41516 138.28586 39744 ft 490 kts 283°
2026-05-07 10:32 61.43069 138.14713 39749 ft 491 kts 282°
2026-05-07 10:32 61.44604 138.00812 39749 ft 490 kts 282°
2026-05-07 10:33 61.46129 137.86912 39752 ft 490 kts 282°
2026-05-07 10:33 61.47638 137.73001 39755 ft 491 kts 282°
2026-05-07 10:34 61.49132 137.59074 39751 ft 490 kts 282°
2026-05-07 10:34 61.50611 137.45142 39749 ft 490 kts 282°
2026-05-07 10:35 61.52074 137.31223 39752 ft 489 kts 282°
2026-05-07 10:35 61.53523 137.17281 39753 ft 489 kts 282°
2026-05-07 10:36 61.54959 137.03331 39747 ft 490 kts 282°
2026-05-07 10:36 61.56383 136.89347 39749 ft 490 kts 281°
2026-05-07 10:37 61.57788 136.75369 39747 ft 489 kts 281°
2026-05-07 10:37 61.59178 136.61376 39745 ft 490 kts 281°
2026-05-07 10:38 61.60556 136.47368 39740 ft 490 kts 281°
2026-05-07 10:38 61.61917 136.33356 39741 ft 489 kts 281°
2026-05-07 10:39 61.63270 136.19324 39741 ft 489 kts 281°
2026-05-07 10:39 61.64606 136.05287 39738 ft 489 kts 281°
2026-05-07 10:40 61.65927 135.91246 39735 ft 489 kts 281°
2026-05-07 10:40 61.67230 135.77176 39737 ft 489 kts 281°
2026-05-07 10:41 61.68517 135.63118 39735 ft 489 kts 280°
2026-05-07 10:41 61.69787 135.49057 39735 ft 488 kts 280°
2026-05-07 10:42 61.70267 135.43704 39731 ft 488 kts 280°
2026-05-07 10:57 61.71497 135.29895 39733 ft 488 kts 280°
2026-05-07 10:58 61.72735 135.15813 39733 ft 488 kts 280°
2026-05-07 10:58 61.73972 135.01721 39732 ft 488 kts 280°
2026-05-07 10:59 61.75218 134.87641 39733 ft 487 kts 280°
2026-05-07 10:59 61.76447 134.73587 39731 ft 487 kts 280°
2026-05-07 11:00 61.77655 134.59530 39733 ft 486 kts 280°
2026-05-07 11:00 61.78845 134.45456 39571 ft 486 kts 280°
2026-05-07 11:01 61.79433 134.38464 39319 ft 480 kts 279°
2026-05-07 11:01 61.80011 134.31550 38921 ft 474 kts 279°
2026-05-07 11:01 61.80580 134.24681 38303 ft 475 kts 279°
2026-05-07 11:01 61.81146 134.17808 37583 ft 474 kts 279°
2026-05-07 11:02 61.81708 134.10940 36949 ft 473 kts 279°
2026-05-07 11:02 61.82263 134.04106 36314 ft 471 kts 279°
2026-05-07 11:02 61.82812 133.97295 35676 ft 470 kts 279°
2026-05-07 11:02 61.83359 133.90482 35013 ft 469 kts 279°
2026-05-07 11:03 61.83902 133.83684 34288 ft 470 kts 279°
2026-05-07 11:03 61.84442 133.76857 33492 ft 471 kts 279°
2026-05-07 11:03 61.84979 133.70020 32693 ft 468 kts 279°
2026-05-07 11:03 61.85506 133.63278 32213 ft 460 kts 279°
2026-05-07 11:04 61.86018 133.56648 31739 ft 452 kts 279°
2026-05-07 11:04 61.86506 133.50106 31212 ft 446 kts 278°
2026-05-07 11:04 61.86978 133.43646 30698 ft 441 kts 278°
2026-05-07 11:04 61.87440 133.37271 30181 ft 435 kts 278°
2026-05-07 11:05 61.87893 133.30977 29686 ft 429 kts 278°
2026-05-07 11:05 61.88340 133.24766 29115 ft 423 kts 278°
2026-05-07 11:05 61.88780 133.18639 28629 ft 417 kts 278°
2026-05-07 11:05 61.89210 133.12619 28148 ft 410 kts 278°
2026-05-07 11:06 61.89631 133.06686 27680 ft 404 kts 277°
2026-05-07 11:06 61.90047 133.00846 27210 ft 397 kts 277°
2026-05-07 11:06 61.90440 132.95107 26755 ft 390 kts 277°
2026-05-07 11:06 61.90832 132.89442 26303 ft 385 kts 277°
2026-05-07 11:07 61.91217 132.83832 25848 ft 384 kts 277°
2026-05-07 11:07 61.91595 132.78248 25387 ft 380 kts 277°
2026-05-07 11:07 61.91972 132.72711 24940 ft 376 kts 277°
2026-05-07 11:07 61.92332 132.67282 24488 ft 369 kts 277°
2026-05-07 11:08 61.92696 132.61924 24051 ft 365 kts 278°
2026-05-07 11:08 61.93080 132.56640 23631 ft 358 kts 278°
2026-05-07 11:08 61.93450 132.51411 23180 ft 357 kts 277°
2026-05-07 11:08 61.93803 132.46188 22724 ft 358 kts 277°
2026-05-07 11:09 61.94156 132.40947 22251 ft 358 kts 277°
2026-05-07 11:09 61.94511 132.35714 21813 ft 357 kts 277°
2026-05-07 11:09 61.94743 132.32276 21495 ft 352 kts 277°
2026-05-07 11:09 61.95195 132.25432 20908 ft 345 kts 278°
2026-05-07 11:10 61.95418 132.22108 20619 ft 343 kts 277°
2026-05-07 11:10 61.95749 132.17102 20167 ft 342 kts 277°
2026-05-07 11:10 61.96076 132.12094 19721 ft 341 kts 278°
2026-05-07 11:10 61.96401 132.07110 19280 ft 339 kts 278°
2026-05-07 11:11 61.96719 132.02201 18840 ft 337 kts 278°
2026-05-07 11:11 61.97036 131.97275 18391 ft 336 kts 278°
2026-05-07 11:11 61.97351 131.92366 17940 ft 334 kts 278°
2026-05-07 11:11 61.97662 131.87490 17467 ft 332 kts 278°
2026-05-07 11:12 61.97970 131.82634 17012 ft 330 kts 278°
2026-05-07 11:12 61.98274 131.77825 16568 ft 327 kts 278°
2026-05-07 11:12 61.98573 131.73042 16126 ft 325 kts 278°
2026-05-07 11:12 61.98865 131.68361 15695 ft 322 kts 278°
2026-05-07 11:13 61.99158 131.63660 15268 ft 320 kts 278°
2026-05-07 11:13 61.99445 131.58991 14853 ft 315 kts 278°
2026-05-07 11:13 61.99730 131.54369 14410 ft 313 kts 278°
2026-05-07 11:13 62.00010 131.49795 13987 ft 311 kts 278°
2026-05-07 11:14 62.00286 131.45244 13572 ft 309 kts 278°
2026-05-07 11:14 62.00553 131.40732 13119 ft 306 kts 277°
2026-05-07 11:14 62.00818 131.36242 12693 ft 306 kts 278°
2026-05-07 11:14 62.01087 131.31758 12265 ft 306 kts 277°
2026-05-07 11:15 62.01359 131.27290 11843 ft 303 kts 277°
2026-05-07 11:15 62.01620 131.22867 11426 ft 300 kts 277°
2026-05-07 11:15 62.01879 131.18456 11016 ft 300 kts 277°
2026-05-07 11:15 62.02131 131.14122 10777 ft 283 kts 277°
2026-05-07 11:16 62.02363 131.10173 10665 ft 257 kts 277°
2026-05-07 11:16 62.02580 131.06479 10561 ft 246 kts 276°
2026-05-07 11:16 62.02782 131.02900 10442 ft 243 kts 276°
2026-05-07 11:16 62.02983 130.99332 10316 ft 243 kts 276°
2026-05-07 11:17 62.03182 130.95803 10194 ft 243 kts 276°
2026-05-07 11:17 62.03383 130.92229 9971 ft 243 kts 276°
2026-05-07 11:17 62.03581 130.88673 9705 ft 242 kts 276°
2026-05-07 11:17 62.03785 130.85038 9486 ft 255 kts 276°
2026-05-07 11:18 62.03999 130.81221 9405 ft 260 kts 276°
2026-05-07 11:18 62.04211 130.77413 8908 ft 260 kts 276°
2026-05-07 11:18 62.04451 130.73597 8510 ft 260 kts 280°
2026-05-07 11:18 62.05046 130.69947 8248 ft 265 kts 294°
2026-05-07 11:19 62.05889 130.66480 7945 ft 263 kts 296°
2026-05-07 11:19 62.06750 130.63061 7644 ft 260 kts 296°
2026-05-07 11:19 62.07600 130.59666 7340 ft 259 kts 296°
2026-05-07 11:19 62.08446 130.56270 7032 ft 259 kts 296°
2026-05-07 11:20 62.09283 130.52885 6742 ft 257 kts 296°
2026-05-07 11:20 62.10113 130.49521 6445 ft 256 kts 296°
2026-05-07 11:20 62.10943 130.46170 6163 ft 255 kts 297°
2026-05-07 11:20 62.11769 130.42833 5862 ft 254 kts 297°
2026-05-07 11:21 62.12588 130.39498 5562 ft 253 kts 297°
2026-05-07 11:21 62.13393 130.36211 5257 ft 253 kts 297°
2026-05-07 11:21 62.14200 130.32909 4981 ft 250 kts 297°
2026-05-07 11:21 62.15007 130.29611 4694 ft 250 kts 297°
2026-05-07 11:22 62.15817 130.26325 4511 ft 247 kts 297°
2026-05-07 11:22 62.16609 130.23064 4365 ft 251 kts 297°
2026-05-07 11:22 62.17408 130.19760 4111 ft 248 kts 297°
2026-05-07 11:22 62.18297 130.16588 3798 ft 249 kts 304°
2026-05-07 11:23 62.19297 130.13573 3539 ft 246 kts 307°
2026-05-07 11:23 62.20312 130.10760 3466 ft 231 kts 309°
2026-05-07 11:23 62.21278 130.08145 3372 ft 217 kts 308°
2026-05-07 11:23 62.22163 130.05589 3268 ft 209 kts 301°
2026-05-07 11:24 62.22643 130.02748 3147 ft 199 kts 279°
2026-05-07 11:24 62.22325 129.99955 3102 ft 197 kts 244°
2026-05-07 11:24 62.21532 129.97520 3027 ft 199 kts 236°
2026-05-07 11:24 62.20553 129.95569 2925 ft 188 kts 216°
2026-05-07 11:25 62.19510 129.94010 2689 ft 181 kts 224°
2026-05-07 11:25 62.18540 129.92349 2372 ft 174 kts 221°
2026-05-07 11:25 62.17592 129.90822 2118 ft 166 kts 220°
2026-05-07 11:25 62.16693 129.89370 1883 ft 157 kts 221°
2026-05-07 11:26 62.15849 129.88001 1677 ft 148 kts 220°
2026-05-07 11:26 62.15052 129.86712 1473 ft 141 kts 220°
2026-05-07 11:26 62.14269 129.85449 1283 ft 141 kts 220°
2026-05-07 11:26 62.13489 129.84193 1070 ft 140 kts 219°
2026-05-07 11:27 62.12715 129.82946 849 ft 139 kts 219°
2026-05-07 11:27 62.11969 129.81730 660 ft 135 kts 219°
2026-05-07 11:27 62.11220 129.80526 488 ft 136 kts 218°
2026-05-07 11:27 62.10459 129.79327 362 ft 136 kts 221°
2026-05-07 11:28 62.09749 129.78168 328 ft 115 kts 216°
2026-05-07 11:28 62.09197 129.77284 332 ft 85 kts 216°
2026-05-07 11:28 62.08850 129.76736 335 ft 37 kts 216°